CDT,Max TemperatureF,Mean TemperatureF,Min TemperatureF,Max Dew PointF,MeanDew PointF,Min DewpointF,Max Humidity, Mean Humidity, Min Humidity, Max Sea Level PressureIn, Mean Sea Level PressureIn, Min Sea Level PressureIn, Max VisibilityMiles, Mean VisibilityMiles, Min VisibilityMiles, Max Wind SpeedMPH, Mean Wind SpeedMPH, Max Gust SpeedMPH,PrecipitationIn, CloudCover, Events, WindDirDegrees
2012-10-1,86,76,66,64,62,60,90,66,42,29.96,29.90,29.85,10,10,10,13,4,,T,0,,68
2012-10-2,87,77,66,65,56,46,90,55,25,30.02,29.96,29.91,10,10,10,18,8,22,0.00,0,,354
2012-10-3,97,82,66,67,57,51,78,46,25,29.99,29.92,29.86,10,10,10,20,10,23,0.00,0,,145
2012-10-4,102,88,73,67,61,48,79,48,17,30.04,29.97,29.93,10,10,10,24,13,29,0.00,0,,150
2012-10-5,96,84,71,66,62,55,81,52,25,30.07,29.99,29.91,10,10,10,21,12,24,0.00,0,,155
2012-10-6,93,80,67,66,60,53,84,55,27,29.99,29.93,29.86,10,10,10,16,10,20,0.00,0,,122
2012-10-7,76,67,58,65,53,48,86,72,64,30.19,30.11,29.99,10,9,3,24,12,31,T,7,Rain,26
2012-10-8,69,63,57,52,49,46,69,61,53,30.26,30.17,30.09,10,10,10,14,7,15,0.00,8,,67
2012-10-9,90,79,67,71,61,52,76,59,42,30.09,29.99,29.89,10,10,4,18,10,23,0.00,5,,153
2012-10-10,95,86,76,74,71,66,90,73,40,30.08,29.98,29.91,10,10,10,25,12,29,0.00,5,,136
2012-10-11,96,86,76,74,71,66,90,67,37,30.10,30.02,29.95,10,10,10,23,14,28,0.00,2,,138
2012-10-12,96,86,76,73,72,66,90,69,37,30.13,30.06,29.96,10,10,10,24,14,29,0.00,4,,143
2012-10-13,98,89,79,73,71,66,82,65,35,30.06,29.97,29.81,10,10,10,27,15,33,0.00,4,,157
2012-10-14,86,82,77,72,71,69,79,71,63,30.05,29.97,29.88,10,10,10,24,9,30,0.00,3,,103
2012-10-15,87,81,74,71,67,61,84,69,51,30.07,30.01,29.94,10,10,10,13,8,16,T,2,Rain,74
2012-10-16,91,82,73,71,66,56,90,63,33,29.95,29.84,29.73,10,10,10,14,7,16,T,1,,130
2012-10-17,103,88,72,69,63,58,81,49,25,29.76,29.69,29.60,10,10,10,17,8,22,0.00,0,,162
2012-10-18,91,82,72,66,62,59,73,53,38,29.97,29.80,29.68,10,10,10,18,10,23,0.00,1,,47
2012-10-19,88,79,70,64,56,49,66,49,40,30.02,29.95,29.88,10,10,10,16,8,20,0.00,3,,89
2012-10-20,95,84,73,72,67,63,87,67,34,29.94,29.86,29.74,10,9,5,21,12,25,0.00,3,,152
2012-10-21,96,86,75,71,68,64,87,61,35,29.93,29.83,29.77,10,10,9,25,15,30,0.00,0,,152
2012-10-22,96,85,74,71,67,62,87,58,33,29.93,29.86,29.80,10,10,10,27,16,33,0.00,0,,148
2012-10-23,94,85,75,72,69,65,87,65,41,29.96,29.89,29.82,10,10,10,22,13,25,0.00,2,,145
2012-10-24,93,83,73,69,66,60,84,64,38,29.98,29.88,29.80,10,10,10,20,12,23,0.00,3,,144
2012-10-25,95,84,72,69,65,55,87,59,32,29.89,29.81,29.75,10,10,10,16,10,25,0.00,0,,140
2012-10-26,80,68,55,72,57,48,93,86,62,30.28,30.10,29.87,10,8,1,24,12,29,0.03,7,Rain,21
2012-10-27,65,59,53,47,39,34,74,50,34,30.31,30.22,30.14,10,10,10,16,8,20,0.00,7,,28
2012-10-28,69,63,56,43,38,32,59,43,28,30.28,30.21,30.16,10,10,10,13,6,16,0.00,4,,55
2012-10-29,76,62,47,47,39,36,73,45,24,30.27,30.18,30.10,10,10,10,12,5,17,0.00,0,,89
2012-10-30,84,71,57,58,54,49,83,59,37,30.12,30.02,29.93,10,10,10,16,9,27,0.00,0,,140
2012-10-31,89,76,62,66,63,57,97,79,36,30.08,30.00,29.92,10,8,0,10,5,14,0.00,3,Fog,81